Location: Unspecified
(0.0000°N, 0.0000°E)
Time: 21:43:02
(UTC+00:00)

Envisat - Visible Passes

Search period start: 21 March 2019 00:00
Search period end: 31 March 2019 00:00
Orbit: 764 x 766 km, 98.2° (Epoch: 21 March)

Date Brightness Start Highest point End Pass type
(mag) Time Alt. Az. Time Alt. Az. Time Alt. Az.
21 Mar 3.0 19:04:08 10° SSE 19:09:14 90° NNE 19:14:18 10° NNW visible
22 Mar 3.7 18:28:07 10° SE 18:32:35 31° ENE 18:37:01 10° NNE visible
22 Mar 5.9 20:08:29 10° SW 20:11:19 15° WSW 20:14:09 10° WNW visible
23 Mar 4.2 19:29:54 10° S 19:34:41 42° WSW 19:39:28 10° NNW visible
24 Mar 2.9 18:53:00 10° SSE 18:58:02 66° ENE 19:03:03 10° N visible
25 Mar 5.4 19:56:26 10° SSW 20:00:08 21° WSW 20:03:51 10° NW visible
26 Mar 3.6 19:18:31 10° S 19:23:30 58° WSW 19:28:28 10° NNW visible
27 Mar 3.2 18:41:58 10° SSE 18:46:51 48° ENE 18:51:42 10° N visible
28 Mar 5.0 19:44:40 10° SSW 19:48:57 28° WSW 19:53:13 10° NW visible
29 Mar 3.1 19:07:14 10° S 19:12:19 80° WSW 19:17:23 10° NNW visible
30 Mar 3.6 18:31:04 10° SE 18:35:40 35° ENE 18:40:15 10° NNE visible
30 Mar 6.0 20:12:03 10° SW 20:14:23 13° WSW 20:16:43 10° WNW visible
